User: anonymous   Login
Location: Unspecified
(33.7106°N, 0.0000°E)
Time: 06:38:16
(UTC+00:00)
Language:

Cosmos 1302 Rocket - Orbit

View from above orbital plane
View from above orbital plane
View from above satellite
View from above satellite

Ground track
Ground track

The orbit is defined by the following mean orbital elements,

1 12792U          26088.14526191 +.00000000 +00000-0 +90745-4 0 00006
2 12792  74.0276 247.7844 0012593 116.4502 243.7946 14.39017053    02
Epoch (UTC): 29 March 2026 03:29:10
Eccentricity: 0.0012593
inclination: 74.0276°
perigee height: 753 km
apogee height: 771 km
right ascension of ascending node: 247.7844°
argument of perigee: 116.4502°
revolutions per day: 14.39017053
mean anomaly at epoch: 243.7946°

The dashed part of the orbit path shows where the satellite is in the earth's shadow,  

DLR